• In Germany
  • List of Countries
  • For 7 days
  • Water Temperature
  • Satellite Maps
  • Weather Map
  • Weather Widgets
  • user-avatar
    Login

    Hourly Weather Ngo

    Today, 21 November, Tuesday

    Time Temperature Precipitation Wind Pressure Humidity
    00:00 +24°C° 0 mm 1 mps 709 mmHg 83%
    01:00 +23°C° 0 mm 1 mps 708 mmHg 85%
    02:00 +23°C° 0 mm 1 mps 708 mmHg 86%
    03:00 +23°C° 0 mm 1 mps 708 mmHg 87%
    04:00 +23°C° 0 mm 1 mps 708 mmHg 89%
    05:00 +23°C° 0 mm 1 mps 708 mmHg 87%
    06:00 +24°C° 0 mm 1 mps 709 mmHg 86%
    07:00 +25°C° 0 mm 1 mps 709 mmHg 84%
    08:00 +27°C° 0.3 mm 1 mps 709 mmHg 76%
    09:00 +29°C° 0.3 mm 1 mps 710 mmHg 69%
    10:00 +31°C° 0.3 mm 1 mps 710 mmHg 61%
    11:00 +32°C° 0.2 mm 1 mps 709 mmHg 57%
    12:00 +32°C° 0.2 mm 1 mps 709 mmHg 54%
    13:00 +34°C° 0.2 mm 2 mps 708 mmHg 50%
    14:00 +32°C° 0.5 mm 2 mps 708 mmHg 53%
    15:00 +32°C° 0.5 mm 1 mps 707 mmHg 55%
    16:00 +31°C° 0.5 mm 1 mps 706 mmHg 57%
    17:00 +29°C° 0.2 mm 1 mps 707 mmHg 63%
    18:00 +28°C° 0.2 mm 1 mps 707 mmHg 69%
    19:00 +26°C° 0.2 mm 1 mps 707 mmHg 75%
    20:00 +26°C° 0.3 mm 1 mps 708 mmHg 78%
    21:00 +25°C° 0.3 mm 1 mps 708 mmHg 81%
    22:00 +25°C° 0.3 mm 1 mps 709 mmHg 84%
    23:00 +24°C° 0 mm 1 mps 708 mmHg 85%

    Tomorrow, 22 November, Wednesday

    Time Temperature Precipitation Wind Pressure Humidity
    00:00 +24°C° 0 mm 1 mps 708 mmHg 86%
    01:00 +24°C° 0 mm 1 mps 708 mmHg 87%
    02:00 +24°C° 0 mm 1 mps 708 mmHg 87%
    03:00 +24°C° 0 mm 1 mps 707 mmHg 87%
    04:00 +23°C° 0 mm 1 mps 707 mmHg 87%
    05:00 +24°C° 0 mm 1 mps 708 mmHg 86%
    06:00 +24°C° 0 mm 1 mps 708 mmHg 84%
    07:00 +25°C° 0 mm 1 mps 709 mmHg 83%
    08:00 +27°C° 0 mm 2 mps 709 mmHg 75%
    09:00 +29°C° 0 mm 2 mps 709 mmHg 68%
    10:00 +31°C° 0 mm 2 mps 710 mmHg 61%
    11:00 +32°C° 0.3 mm 1 mps 709 mmHg 56%
    12:00 +33°C° 0.3 mm 1 mps 708 mmHg 52%
    13:00 +34°C° 0.3 mm 1 mps 707 mmHg 48%
    14:00 +33°C° 0.8 mm 1 mps 707 mmHg 54%
    15:00 +32°C° 0.8 mm 1 mps 706 mmHg 59%
    16:00 +30°C° 0.8 mm 2 mps 706 mmHg 65%
    17:00 +29°C° 0.4 mm 2 mps 706 mmHg 71%
    18:00 +27°C° 0.4 mm 2 mps 707 mmHg 76%
    19:00 +25°C° 0.4 mm 2 mps 707 mmHg 82%
    20:00 +25°C° 4.1 mm 2 mps 708 mmHg 86%
    21:00 +24°C° 4.1 mm 1 mps 708 mmHg 89%
    22:00 +24°C° 4.1 mm 1 mps 709 mmHg 92%
    23:00 +24°C° 1.5 mm 2 mps 709 mmHg 92%

    Day after tomorrow, 23 November, Thursday

    Time Temperature Precipitation Wind Pressure Humidity
    00:00 +23°C° 1.5 mm 2 mps 708 mmHg 92%
    01:00 +23°C° 1.5 mm 2 mps 708 mmHg 92%
    02:00 +23°C° 0.1 mm 2 mps 708 mmHg 91%
    03:00 +23°C° 0.1 mm 2 mps 707 mmHg 91%
    04:00 +23°C° 0.1 mm 2 mps 707 mmHg 91%
    05:00 +23°C° 0 mm 2 mps 708 mmHg 90%
    06:00 +24°C° 0 mm 2 mps 709 mmHg 88%
    07:00 +24°C° 0 mm 2 mps 709 mmHg 86%
    08:00 +26°C° 0.3 mm 2 mps 710 mmHg 81%
    09:00 +27°C° 0.3 mm 2 mps 710 mmHg 75%
    10:00 +29°C° 0.3 mm 2 mps 710 mmHg 69%
    11:00 +29°C° 1 mm 2 mps 709 mmHg 68%
    12:00 +29°C° 1 mm 2 mps 709 mmHg 68%
    13:00 +29°C° 1 mm 2 mps 708 mmHg 67%
    14:00 +29°C° 0.5 mm 2 mps 707 mmHg 68%
    15:00 +29°C° 0.5 mm 2 mps 707 mmHg 68%
    16:00 +29°C° 0.5 mm 2 mps 706 mmHg 69%
    17:00 +27°C° 0 mm 2 mps 707 mmHg 74%
    18:00 +26°C° 0 mm 2 mps 707 mmHg 79%
    19:00 +25°C° 0 mm 1 mps 708 mmHg 84%
    20:00 +24°C° 0 mm 1 mps 708 mmHg 86%
    21:00 +24°C° 0 mm 1 mps 709 mmHg 87%
    22:00 +24°C° 0 mm 1 mps 709 mmHg 88%
    23:00 +23°C° 0 mm 1 mps 709 mmHg 88%

    24 November, Friday

    Time Temperature Precipitation Wind Pressure Humidity
    00:00 +23°C° 0 mm 1 mps 708 mmHg 88%
    01:00 +23°C° 0 mm 1 mps 708 mmHg 88%
    02:00 +23°C° 0 mm 1 mps 708 mmHg 88%
    03:00 +23°C° 0 mm 1 mps 708 mmHg 89%
    04:00 +22°C° 0 mm 1 mps 708 mmHg 89%
    05:00 +23°C° 0 mm 2 mps 708 mmHg 87%
    06:00 +24°C° 0 mm 2 mps 709 mmHg 85%
    07:00 +24°C° 0 mm 2 mps 709 mmHg 83%
    08:00 +26°C° 0.1 mm 2 mps 710 mmHg 76%
    09:00 +28°C° 0.1 mm 2 mps 710 mmHg 69%
    10:00 +30°C° 0.1 mm 2 mps 710 mmHg 61%
    11:00 +31°C° 0.1 mm 2 mps 709 mmHg 58%
    12:00 +32°C° 0.1 mm 2 mps 708 mmHg 55%
    13:00 +32°C° 0.1 mm 2 mps 708 mmHg 51%
    14:00 +32°C° 0.3 mm 2 mps 707 mmHg 55%
    15:00 +31°C° 0.3 mm 2 mps 707 mmHg 58%
    16:00 +31°C° 0.3 mm 1 mps 707 mmHg 61%
    17:00 +29°C° 0.4 mm 2 mps 707 mmHg 68%
    18:00 +27°C° 0.4 mm 2 mps 707 mmHg 75%
    19:00 +25°C° 0.4 mm 2 mps 708 mmHg 82%
    20:00 +25°C° 0.1 mm 2 mps 708 mmHg 84%
    21:00 +24°C° 0.1 mm 2 mps 709 mmHg 85%
    22:00 +24°C° 0.1 mm 2 mps 709 mmHg 87%
    23:00 +24°C° 0 mm 2 mps 709 mmHg 87%

    25 November, Saturday

    Time Temperature Precipitation Wind Pressure Humidity
    00:00 +23°C° 0 mm 2 mps 708 mmHg 87%
    01:00 +23°C° 0 mm 2 mps 708 mmHg 87%
    02:00 +23°C° 0 mm 2 mps 708 mmHg 88%
    03:00 +23°C° 0 mm 2 mps 708 mmHg 88%
    04:00 +23°C° 0 mm 2 mps 708 mmHg 89%
    05:00 +23°C° 0 mm 2 mps 709 mmHg 88%
    06:00 +23°C° 0 mm 2 mps 709 mmHg 88%
    07:00 +24°C° 0 mm 2 mps 710 mmHg 87%
    08:00 +25°C° 0.5 mm 2 mps 710 mmHg 82%
    09:00 +27°C° 0.5 mm 2 mps 710 mmHg 77%
    10:00 +28°C° 0.5 mm 2 mps 710 mmHg 73%
    11:00 +29°C° 0.9 mm 2 mps 710 mmHg 70%
    12:00 +29°C° 0.9 mm 2 mps 709 mmHg 68%
    13:00 +30°C° 0.9 mm 2 mps 709 mmHg 66%
    14:00 +29°C° 1.6 mm 1 mps 708 mmHg 69%
    15:00 +28°C° 1.6 mm 1 mps 708 mmHg 73%
    16:00 +28°C° 1.6 mm 1 mps 708 mmHg 77%
    17:00 +27°C° 1.6 mm 1 mps 708 mmHg 81%
    18:00 +23°C° 1.6 mm 0 mps 709 mmHg 85%
    19:00 +22°C° 1.6 mm 0 mps 709 mmHg 90%
    20:00 +22°C° 1.3 mm 0 mps 710 mmHg 90%
    21:00 +22°C° 1.3 mm 0 mps 710 mmHg 91%
    22:00 +21°C° 1.3 mm 0 mps 710 mmHg 92%
    23:00 +23°C° 0.9 mm 1 mps 710 mmHg 92%

    26 November, Sunday

    Time Temperature Precipitation Wind Pressure Humidity
    00:00 +23°C° 0.9 mm 1 mps 710 mmHg 93%
    01:00 +23°C° 0.9 mm 1 mps 709 mmHg 94%
    02:00 +22°C° 0.5 mm 1 mps 709 mmHg 94%
    03:00 +22°C° 0.5 mm 1 mps 709 mmHg 94%
    04:00 +22°C° 0.5 mm 1 mps 709 mmHg 94%
    05:00 +22°C° 0.1 mm 1 mps 710 mmHg 93%
    06:00 +23°C° 0.1 mm 1 mps 710 mmHg 93%
    07:00 +23°C° 0.1 mm 1 mps 711 mmHg 92%
    08:00 +24°C° 0.2 mm 1 mps 711 mmHg 89%
    09:00 +24°C° 0.2 mm 1 mps 711 mmHg 87%
    10:00 +25°C° 0.2 mm 1 mps 711 mmHg 84%
    11:00 +26°C° 0.1 mm 1 mps 711 mmHg 78%
    12:00 +27°C° 0.1 mm 1 mps 710 mmHg 73%
    13:00 +28°C° 0.1 mm 1 mps 710 mmHg 68%
    14:00 +27°C° 0.1 mm 1 mps 709 mmHg 70%
    15:00 +27°C° 0.1 mm 1 mps 709 mmHg 73%
    16:00 +26°C° 0.1 mm 1 mps 709 mmHg 75%
    17:00 +26°C° 0 mm 1 mps 709 mmHg 78%
    18:00 +23°C° 0 mm 0 mps 709 mmHg 81%
    19:00 +22°C° 0 mm 0 mps 710 mmHg 83%
    20:00 +24°C° 0.2 mm 1 mps 710 mmHg 85%
    21:00 +24°C° 0.2 mm 1 mps 710 mmHg 87%
    22:00 +23°C° 0.2 mm 1 mps 711 mmHg 88%
    23:00 +23°C° 0.4 mm 1 mps 710 mmHg 90%
    Show more